GW2898 Weather Reports


Display with metric or nautical units.
time (UTC)temp
F
wind
direction
speed
MPH
gust
MPH
rain 1hr
in
rain 24hr
in
rain mn
in
humidity
%
barometer
mb
20260905073059 82 89 0.0 0.0 0.00 0.00 0.00 52 1015.1
20260905072558 83 104 0.0 0.0 0.00 0.00 0.00 51 1015.3
20260905072054 83 104 0.0 1.0 0.00 0.00 0.00 50 1015.2
20260905071551 84 55 0.0 0.0 0.00 0.00 0.00 50 1015.0
20260905071046 83 62 0.0 1.0 0.00 0.00 0.00 50 1015.2
20260905070541 83 62 0.0 1.0 0.00 0.00 0.00 51 1015.0
20260905070037 83 37 0.0 1.0 0.00 0.00 0.00 52 1015.1
20260905065534 83 124 0.0 0.0 0.00 0.00 0.00 51 1015.1
20260905065030 84 135 0.0 1.0 0.00 0.00 0.00 51 1015.1
20260905064530 84 142 0.0 0.0 0.00 0.00 0.00 50 1015.2
20260905064025 84 75 0.0 0.0 0.00 0.00 0.00 47 1015.1
20260905063524 84 75 0.0 1.0 0.00 0.00 0.00 47 1015.0
20260905063021 84 104 0.0 1.0 0.00 0.00 0.00 45 1014.9
20260905062521 84 62 0.0 0.0 0.00 0.00 0.00 46 1015.0
20260905062021 85 62 0.0 0.0 0.00 0.00 0.00 46 1014.9
20260905061516 85 62 0.0 0.0 0.00 0.00 0.00 45 1015.0
20260905061015 85 62 0.0 0.0 0.00 0.00 0.00 44 1014.8
20260905060511 86 62 0.0 0.0 0.00 0.00 0.00 42 1014.7
20260905060007 87 62 0.0 0.0 0.00 0.00 0.00 41 1014.8
20260905055505 88 62 0.0 0.0 0.00 0.00 0.00 41 1014.5
20260905055000 89 205 0.0 0.0 0.00 0.00 0.00 42 1014.7
20260905054456 90 25 0.0 1.0 0.00 0.00 0.00 38 1014.7
20260905053951 91 269 0.0 2.0 0.00 0.00 0.00 37 1014.8
20260905053446 89 248 3.0 4.0 0.00 0.00 0.00 37 1014.7
20260905052942 88 338 0.0 1.0 0.00 0.00 0.00 41 1014.7
20260905052441 86 11 2.0 4.0 0.00 0.00 0.00 41 1014.8
20260905051940 86 75 0.0 0.0 0.00 0.00 0.00 43 1014.5
20260905051435 87 117 0.0 0.0 0.00 0.00 0.00 43 1014.7
20260905050933 87 117 0.0 1.0 0.00 0.00 0.00 42 1014.7
20260905050428 87 75 0.0 0.0 0.00 0.00 0.00 41 1014.7
20260905045924 88 75 0.0 0.0 0.00 0.00 0.00 40 1014.6
20260905045419 88 75 0.0 1.0 0.00 0.00 0.00 39 1014.5
20260905044915 89 230 0.0 0.0 0.00 0.00 0.00 39 1014.6
20260905044409 89 230 0.0 0.0 0.00 0.00 0.00 37 1014.5
20260905043908 90 230 0.0 0.0 0.00 0.00 0.00 36 1014.3
20260905043403 91 230 0.0 0.0 0.00 0.00 0.00 35 1014.4
20260905042903 92 230 0.0 0.0 0.00 0.00 0.00 34 1014.3
20260905042358 93 269 0.0 3.0 0.00 0.00 0.00 32 1014.4
20260905041852 94 283 0.0 3.0 0.00 0.00 0.00 31 1014.4
20260905041349 94 241 0.0 3.0 0.00 0.00 0.00 31 1014.2
20260905040843 95 247 1.0 2.0 0.00 0.00 0.00 31 1014.1
20260905040342 95 238 3.0 3.0 0.00 0.00 0.00 30 1014.3
20260905035842 95 235 3.0 3.0 0.00 0.00 0.00 30 1014.2
20260905035337 95 233 2.0 5.0 0.00 0.00 0.00 30 1014.2
20260905034834 95 256 1.0 3.0 0.00 0.00 0.00 29 1014.0
20260905034329 95 240 2.0 4.0 0.00 0.00 0.00 29 1014.0
20260905033828 96 245 4.0 7.0 0.00 0.00 0.00 29 1013.9
20260905033323 95 244 3.0 4.0 0.00 0.00 0.00 28 1013.9
20260905032822 96 235 4.0 6.0 0.00 0.00 0.00 28 1013.9
20260905032318 96 247 3.0 5.0 0.00 0.00 0.00 28 1013.5
20260905031813 96 250 3.0 6.0 0.00 0.00 0.00 27 1013.5
20260905031309 97 239 5.0 9.0 0.00 0.00 0.00 27 1013.6
20260905030804 97 230 2.0 4.0 0.00 0.00 0.00 28 1013.6
20260905030300 97 267 4.0 8.0 0.00 0.00 0.00 27 1013.7
20260905025759 97 238 4.0 7.0 0.00 0.00 0.00 26 1013.4
20260905025255 98 226 2.0 8.0 0.00 0.00 0.00 27 1013.1
20260905024750 97 250 5.0 6.0 0.00 0.00 0.00 27 1013.2
20260905024246 98 234 3.0 7.0 0.00 0.00 0.00 27 1013.2
20260905023747 98 263 2.0 5.0 0.00 0.00 0.00 27 1013.2
20260905023241 98 253 3.0 8.0 0.00 0.00 0.00 27 1013.0
20260905022735 98 244 2.0 9.0 0.00 0.00 0.00 28 1013.2
20260905022231 98 257 3.0 5.0 0.00 0.00 0.00 28 1012.6
20260905021730 98 258 5.0 5.0 0.00 0.00 0.00 27 1012.8
20260905021225 98 246 3.0 7.0 0.00 0.00 0.00 28 1012.8
20260905020720 98 254 4.0 7.0 0.00 0.00 0.00 28 1012.8
20260905020215 97 288 2.0 7.0 0.00 0.00 0.00 29 1012.6
20260905015714 96 201 5.0 6.0 0.00 0.00 0.00 32 1012.7
20260905015209 95 65 2.0 2.0 0.00 0.00 0.00 35 1012.7
20260905014708 95 217 0.0 1.0 0.00 0.00 0.00 34 1012.7
20260905014203 96 75 0.0 0.0 0.00 0.00 0.00 35 1012.5
20260905013659 97 75 0.0 0.0 0.00 0.00 0.00 33 1012.7
20260905013154 98 75 0.0 0.0 0.00 0.00 0.00 33 1012.6
20260905012649 99 302 0.0 0.0 0.00 0.00 0.00 30 1012.7
20260905012140 99 283 2.0 3.0 0.00 0.00 0.00 31 1012.6
20260905011636 100 3 0.0 2.0 0.00 0.00 0.00 30 1012.5
20260905011132 100 1 2.0 3.0 0.00 0.00 0.00 31 1012.4
20260905010626 100 358 1.0 2.0 0.00 0.00 0.00 31 1012.4
20260905010123 102 288 4.0 4.0 0.00 0.00 0.00 30 1012.5
20260905005618 102 339 0.0 2.0 0.00 0.00 0.00 29 1012.5
20260905005113 100 282 1.0 2.0 0.00 0.00 0.00 30 1012.5
20260905004608 99 242 0.0 1.0 0.00 0.00 0.00 32 1012.6
20260905004103 99 269 0.0 2.0 0.00 0.00 0.00 32 1012.6
20260905003559 99 260 0.0 2.0 0.00 0.00 0.00 31 1012.7
20260905003054 99 221 2.0 3.0 0.00 0.00 0.00 31 1012.8
20260905002549 100 297 2.0 3.0 0.00 0.00 0.00 30 1012.6
20260905002044 102 343 0.0 2.0 0.00 0.00 0.00 29 1012.6
20260905001539 102 1 0.0 4.0 0.00 0.00 0.00 28 1012.6
20260905001032 101 255 0.0 3.0 0.00 0.00 0.00 33 1012.8
20260905000528 100 290 1.0 2.0 0.00 0.00 0.00 31 1012.6
20260905000024 101 228 2.0 3.0 0.00 0.00 0.00 30 1012.7
20260904235519 103 253 4.0 5.0 0.00 0.00 0.00 28 1012.4
20260904235018 104 263 2.0 3.0 0.00 0.00 0.00 30 1012.7
20260904234518 102 94 1.0 3.0 0.00 0.00 0.00 30 1012.7
20260904234014 102 262 6.0 6.0 0.00 0.00 0.00 30 1012.8
20260904233509 101 255 0.0 5.0 0.00 0.00 0.00 29 1012.8
20260904233006 101 193 1.0 4.0 0.00 0.00 0.00 31 1012.6
20260904232502 103 224 1.0 3.0 0.00 0.00 0.00 32 1012.6
20260904231958 102 223 1.0 3.0 0.00 0.00 0.00 30 1013.1
20260904231453 102 89 0.0 3.0 0.00 0.00 0.00 32 1013.1
20260904230948 102 67 2.0 3.0 0.00 0.00 0.00 31 1012.8
20260904230447 102 63 1.0 4.0 0.00 0.00 0.00 34 1013.0
20260904225942 104 269 0.0 1.0 0.00 0.00 0.00 31 1013.0
20260904225440 100 229 0.0 2.0 0.00 0.00 0.00 35 1012.8
20260904224934 99 37 0.0 1.0 0.00 0.00 0.00 33 1012.8
20260904224430 99 128 0.0 4.0 0.00 0.00 0.00 32 1013.3
20260904223930 100 263 2.0 4.0 0.00 0.00 0.00 34 1013.3
20260904223429 99 279 4.0 5.0 0.00 0.00 0.00 33 1013.2
20260904222925 98 242 8.0 9.0 0.00 0.00 0.00 33 1013.4
20260904222420 104 246 3.0 5.0 0.00 0.00 0.00 31 1013.5
20260904221920 101 104 0.0 2.0 0.00 0.00 0.00 31 1013.7
20260904221415 100 159 3.0 4.0 0.00 0.00 0.00 32 1013.6
20260904220910 98 157 0.0 2.0 0.00 0.00 0.00 35 1013.6
20260904220409 98 211 2.0 5.0 0.00 0.00 0.00 34 1013.7
20260904215905 99 295 1.0 3.0 0.00 0.00 0.00 32 1013.8
20260904215400 100 35 2.0 4.0 0.00 0.00 0.00 35 1013.9
20260904214856 99 230 2.0 4.0 0.00 0.00 0.00 35 1014.0
20260904214351 99 179 1.0 7.0 0.00 0.00 0.00 35 1014.0
20260904213850 100 180 0.0 6.0 0.00 0.00 0.00 34 1014.0
20260904213345 100 176 2.0 11.0 0.00 0.00 0.00 34 1014.1
20260904212841 102 229 5.0 8.0 0.00 0.00 0.00 33 1013.9
20260904212335 101 180 3.0 7.0 0.00 0.00 0.00 33 1014.0
20260904211831 100 46 1.0 7.0 0.00 0.00 0.00 36 1014.4
20260904211325 100 186 0.0 3.0 0.00 0.00 0.00 38 1014.2
20260904210820 98 67 2.0 7.0 0.00 0.00 0.00 36 1014.4
20260904210319 100 56 4.0 6.0 0.00 0.00 0.00 35 1014.4
20260904205816 100 75 3.0 5.0 0.00 0.00 0.00 36 1014.6
20260904205311 99 263 1.0 5.0 0.00 0.00 0.00 36 1014.6
20260904204808 100 71 7.0 8.0 0.00 0.00 0.00 35 1014.5
20260904204304 99 226 0.0 3.0 0.00 0.00 0.00 35 1014.6
20260904203800 98 161 2.0 5.0 0.00 0.00 0.00 37 1014.8
20260904203256 99 93 5.0 7.0 0.00 0.00 0.00 36 1014.6
20260904202752 99 77 4.0 6.0 0.00 0.00 0.00 35 1014.8
20260904202248 99 116 2.0 7.0 0.00 0.00 0.00 38 1015.2
20260904201743 98 118 0.0 3.0 0.00 0.00 0.00 39 1015.0
20260904201237 97 65 3.0 6.0 0.00 0.00 0.00 38 1015.1
20260904200732 97 195 0.0 6.0 0.00 0.00 0.00 39 1015.4
20260904200226 96 321 5.0 8.0 0.00 0.00 0.00 39 1015.6
20260904195725 98 273 6.0 10.0 0.00 0.00 0.00 37 1015.4
20260904195224 97 236 1.0 5.0 0.00 0.00 0.00 39 1015.6
20260904194720 97 180 3.0 7.0 0.00 0.00 0.00 38 1015.6
20260904194218 97 219 7.0 9.0 0.00 0.00 0.00 39 1015.6
20260904193714 96 265 4.0 7.0 0.00 0.00 0.00 40 1015.6
20260904193205 97 180 3.0 7.0 0.00 0.00 0.00 41 1015.6
20260904192705 97 172 3.0 6.0 0.00 0.00 0.00 40 1015.7
20260904192200 96 178 2.0 7.0 0.00 0.00 0.00 41 1016.0
20260904191656 98 190 3.0 9.0 0.00 0.00 0.00 40 1016.1
20260904191147 96 186 3.0 7.0 0.00 0.00 0.00 43 1016.1
20260904190643 97 187 5.0 6.0 0.00 0.00 0.00 42 1016.2
20260904190139 96 83 2.0 8.0 0.00 0.00 0.00 43 1016.3
20260904185635 95 246 3.0 9.0 0.00 0.00 0.00 44 1016.5
20260904185129 96 225 3.0 6.0 0.00 0.00 0.00 44 1016.5
20260904184628 96 187 3.0 5.0 0.00 0.00 0.00 45 1016.6
20260904184124 96 333 4.0 5.0 0.00 0.00 0.00 41 1016.6
20260904183619 96 209 4.0 8.0 0.00 0.00 0.00 42 1016.8
20260904183114 94 224 0.0 9.0 0.00 0.00 0.00 43 1016.7
20260904182609 94 170 3.0 7.0 0.00 0.00 0.00 43 1016.8
20260904182104 94 204 2.0 8.0 0.00 0.00 0.00 46 1017.1
20260904181601 94 255 3.0 6.0 0.00 0.00 0.00 45 1017.0
20260904181100 94 215 3.0 9.0 0.00 0.00 0.00 46 1017.2
20260904180555 94 247 1.0 11.0 0.00 0.00 0.00 43 1017.2
20260904180050 95 173 3.0 5.0 0.00 0.00 0.00 46 1017.2
20260904175549 94 277 2.0 7.0 0.00 0.00 0.00 45 1017.3
20260904175048 93 232 5.0 8.0 0.00 0.00 0.00 47 1017.3
20260904174543 94 171 5.0 9.0 0.00 0.00 0.00 48 1017.3
20260904174040 93 227 2.0 5.0 0.00 0.00 0.00 51 1017.1
20260904173539 93 174 3.0 10.0 0.00 0.00 0.00 49 1017.3
20260904173035 93 168 4.0 6.0 0.00 0.00 0.00 49 1017.2
20260904172531 92 206 3.0 8.0 0.00 0.00 0.00 52 1017.3
20260904172030 93 184 2.0 6.0 0.00 0.00 0.00 51 1017.2
20260904171526 93 189 5.0 7.0 0.00 0.00 0.00 49 1017.2
20260904171022 93 194 1.0 7.0 0.00 0.00 0.00 49 1017.4
20260904170517 93 195 3.0 8.0 0.00 0.00 0.00 50 1017.4
20260904170013 93 77 1.0 4.0 0.00 0.00 0.00 51 1017.2
20260904165511 92 126 1.0 4.0 0.00 0.00 0.00 52 1017.2
20260904165011 91 198 3.0 8.0 0.00 0.00 0.00 52 1017.1
20260904164506 91 153 3.0 5.0 0.00 0.00 0.00 53 1017.2
20260904164002 92 152 3.0 7.0 0.00 0.00 0.00 51 1017.2
20260904163502 91 154 1.0 7.0 0.00 0.00 0.00 55 1017.2
20260904163001 91 149 6.0 8.0 0.00 0.00 0.00 52 1017.1
20260904162457 90 204 3.0 9.0 0.00 0.00 0.00 54 1017.0
20260904161952 90 225 3.0 7.0 0.00 0.00 0.00 55 1017.0
20260904161447 90 152 5.0 10.0 0.00 0.00 0.00 55 1017.1
20260904160943 90 152 3.0 11.0 0.00 0.00 0.00 54 1017.2
20260904160437 89 179 0.0 7.0 0.00 0.00 0.00 56 1017.0
20260904155932 90 155 1.0 7.0 0.00 0.00 0.00 56 1017.0
20260904155427 89 165 4.0 7.0 0.00 0.00 0.00 55 1017.0
20260904154926 89 151 3.0 10.0 0.00 0.00 0.00 56 1017.0
20260904154420 89 172 3.0 8.0 0.00 0.00 0.00 56 1016.9
20260904153915 89 159 5.0 12.0 0.00 0.00 0.00 57 1016.9
20260904153411 89 216 3.0 7.0 0.00 0.00 0.00 57 1016.9
20260904152907 89 195 2.0 9.0 0.00 0.00 0.00 57 1016.7
20260904152403 89 186 4.0 6.0 0.00 0.00 0.00 56 1016.7
20260904151902 89 160 5.0 9.0 0.00 0.00 0.00 56 1016.9
20260904151401 89 136 2.0 8.0 0.00 0.00 0.00 57 1016.8
20260904150857 89 157 3.0 8.0 0.00 0.00 0.00 57 1016.9
20260904150352 89 204 1.0 5.0 0.00 0.00 0.00 57 1016.7
20260904145850 89 180 2.0 4.0 0.00 0.00 0.00 57 1016.8
20260904145346 88 192 2.0 7.0 0.00 0.00 0.00 59 1016.6
20260904144842 88 159 5.0 9.0 0.00 0.00 0.00 58 1016.7
20260904144337 88 183 2.0 4.0 0.00 0.00 0.00 58 1016.7
20260904143827 87 168 2.0 7.0 0.00 0.00 0.00 59 1016.8
20260904143324 87 152 0.0 8.0 0.00 0.00 0.00 60 1016.5
20260904142820 87 139 2.0 7.0 0.00 0.00 0.00 60 1016.6
20260904142316 87 154 3.0 6.0 0.00 0.00 0.00 61 1016.3
20260904141815 86 219 3.0 6.0 0.00 0.00 0.00 61 1016.3
20260904141310 86 180 2.0 4.0 0.00 0.00 0.00 62 1016.3
20260904140807 86 136 2.0 6.0 0.00 0.00 0.00 61 1016.5
20260904140302 86 158 3.0 5.0 0.00 0.00 0.00 62 1016.3
20260904135800 86 199 2.0 3.0 0.00 0.00 0.00 62 1016.1
20260904135256 85 224 2.0 6.0 0.00 0.00 0.00 63 1016.2
20260904134752 85 213 1.0 6.0 0.00 0.00 0.00 63 1015.8
20260904134251 85 192 1.0 7.0 0.00 0.00 0.00 63 1015.8
20260904133746 84 162 3.0 8.0 0.00 0.00 0.00 64 1015.7
20260904133242 84 150 1.0 4.0 0.00 0.00 0.00 64 1015.8
20260904132741 84 177 2.0 5.0 0.00 0.00 0.00 65 1015.6
20260904132237 83 147 2.0 6.0 0.00 0.00 0.00 65 1015.6
20260904131736 83 154 2.0 6.0 0.00 0.00 0.00 65 1015.5
20260904131233 83 186 1.0 3.0 0.00 0.00 0.00 65 1015.1
20260904130732 83 215 3.0 9.0 0.00 0.00 0.00 65 1015.4
20260904130231 83 201 2.0 3.0 0.00 0.00 0.00 66 1015.2
20260904125728 83 209 3.0 6.0 0.00 0.00 0.00 65 1015.2
20260904125223 83 183 1.0 3.0 0.00 0.00 0.00 65 1015.3
20260904124717 83 189 0.0 3.0 0.00 0.00 0.00 65 1015.2
20260904124214 83 160 2.0 4.0 0.00 0.00 0.00 65 1014.8
20260904123708 83 141 2.0 5.0 0.00 0.00 0.00 65 1015.0
20260904123204 83 130 0.0 3.0 0.00 0.00 0.00 65 1014.9
20260904122659 83 148 0.0 4.0 0.00 0.00 0.00 66 1014.9
20260904122153 82 196 0.0 3.0 0.00 0.00 0.00 67 1014.9
20260904121648 80 181 1.0 4.0 0.00 0.00 0.00 70 1015.0
20260904121144 81 141 0.0 3.0 0.00 0.00 0.00 70 1014.9
20260904120641 81 59 0.0 1.0 0.00 0.00 0.00 69 1014.7
20260904120137 81 53 0.0 1.0 0.00 0.00 0.00 68 1014.7
20260904115636 82 147 0.0 2.0 0.00 0.00 0.00 68 1014.9
20260904115131 82 113 0.0 1.0 0.00 0.00 0.00 67 1014.8
20260904114625 82 168 0.0 3.0 0.00 0.00 0.00 67 1014.6
20260904114120 81 245 0.0 2.0 0.00 0.00 0.00 68 1014.7
20260904113615 81 168 0.0 2.0 0.00 0.00 0.00 68 1014.7
20260904113114 81 22 0.0 1.0 0.00 0.00 0.00 69 1014.8
20260904112609 80 129 0.0 2.0 0.00 0.00 0.00 70 1014.7
20260904112105 80 80 0.0 2.0 0.00 0.00 0.00 71 1014.7
20260904111601 80 52 1.0 1.0 0.00 0.00 0.00 71 1014.9
20260904111056 80 314 0.0 1.0 0.00 0.00 0.00 71 1014.7
20260904110556 80 202 0.0 1.0 0.00 0.00 0.00 70 1014.7
20260904110051 80 75 0.0 1.0 0.00 0.00 0.00 70 1014.7
20260904105551 81 142 0.0 0.0 0.00 0.00 0.00 69 1014.6
20260904105046 81 129 0.0 0.0 0.00 0.00 0.00 68 1014.7
20260904104541 82 147 0.0 1.0 0.00 0.00 0.00 67 1014.6
20260904104037 81 55 0.0 2.0 0.00 0.00 0.00 67 1014.7
20260904103532 81 22 0.0 1.0 0.00 0.00 0.00 67 1014.5
20260904103028 82 10 0.0 1.0 0.00 0.00 0.00 67 1014.4
20260904102524 82 195 1.0 4.0 0.00 0.00 0.00 67 1014.4
20260904102019 80 57 0.0 1.0 0.00 0.00 0.00 70 1014.3
20260904101516 80 147 0.0 3.0 0.00 0.00 0.00 70 1014.4
20260904101011 80 62 0.0 1.0 0.00 0.00 0.00 70 1014.3
20260904100507 80 142 0.0 1.0 0.00 0.00 0.00 70 1014.3
20260904100007 80 104 0.0 3.0 0.00 0.00 0.00 69 1014.4
20260904095502 81 333 0.0 1.0 0.00 0.00 0.00 68 1014.4
20260904094956 81 260 1.0 2.0 0.00 0.00 0.00 69 1014.3
20260904094446 80 22 0.0 0.0 0.00 0.00 0.00 69 1014.3
20260904093941 80 135 0.0 2.0 0.00 0.00 0.00 69 1014.3
20260904093437 80 66 0.0 1.0 0.00 0.00 0.00 69 1014.2
20260904092932 80 37 0.0 1.0 0.00 0.00 0.00 69 1014.1
20260904092429 81 34 1.0 1.0 0.00 0.00 0.00 68 1014.0
20260904091919 81 29 0.0 1.0 0.00 0.00 0.00 69 1014.3
20260904091415 80 205 0.0 1.0 0.00 0.00 0.00 69 1014.3
20260904090909 81 333 0.0 1.0 0.00 0.00 0.00 69 1014.5
20260904090405 81 38 0.0 0.0 0.00 0.00 0.00 68 1014.1
20260904085900 81 96 1.0 1.0 0.00 0.00 0.00 68 1014.1
20260904085355 81 129 0.0 0.0 0.00 0.00 0.00 67 1014.2
20260904084849 81 62 0.0 0.0 0.00 0.00 0.00 67 1014.1
20260904084345 81 25 0.0 2.0 0.00 0.00 0.00 68 1014.3
20260904083840 81 164 0.0 0.0 0.00 0.00 0.00 68 1014.3
20260904083337 82 50 0.0 0.0 0.00 0.00 0.00 67 1014.1
20260904082833 82 119 0.0 0.0 0.00 0.00 0.00 66 1014.4
20260904082327 82 103 0.0 2.0 0.00 0.00 0.00 66 1014.6
20260904081822 83 89 0.0 2.0 0.00 0.00 0.00 65 1014.2
20260904081318 83 103 1.0 2.0 0.00 0.00 0.00 64 1014.3
20260904080814 83 29 1.0 2.0 0.00 0.00 0.00 63 1014.3
20260904080309 84 343 0.0 2.0 0.00 0.00 0.00 63 1014.4
20260904075806 84 129 0.0 2.0 0.00 0.00 0.00 63 1014.3
20260904075307 84 99 0.0 2.0 0.00 0.00 0.00 63 1014.5
20260904074804 84 113 0.0 0.0 0.00 0.00 0.00 62 1014.2
20260904074300 84 121 1.0 2.0 0.00 0.00 0.00 61 1014.2
20260904073755 84 242 0.0 3.0 0.00 0.00 0.00 61 1014.3